TimeCST,TemperatureF,Dew PointF,Humidity,Sea Level PressureIn,VisibilityMPH,Wind Direction,Wind SpeedMPH,Gust SpeedMPH,PrecipitationIn,Events,Conditions,WindDirDegrees,DateUTC
12:28 AM,15.8,12.2,86,30.02,10.0,NNW,16.1,-,N/A,,Overcast,330,2012-12-31 06:28:00
12:52 AM,18.0,14.0,84,30.09,7.0,NNW,21.9,-,N/A,,Overcast,330,2012-12-31 06:52:00
1:52 AM,18.0,14.0,84,30.11,9.0,NNW,20.7,-,N/A,,Scattered Clouds,330,2012-12-31 07:52:00
2:12 AM,17.6,14.0,86,30.06,10.0,NNW,20.7,-,N/A,,Mostly Cloudy,330,2012-12-31 08:12:00
2:52 AM,18.0,12.9,81,30.16,5.0,NNW,27.6,34.5,N/A,,Haze,330,2012-12-31 08:52:00
3:52 AM,17.1,12.9,84,30.17,7.0,NNW,21.9,-,N/A,,Overcast,340,2012-12-31 09:52:00
4:42 AM,15.8,12.2,86,30.10,10.0,NNW,18.4,-,N/A,,Scattered Clouds,340,2012-12-31 10:42:00
4:52 AM,16.0,10.9,81,30.17,10.0,NNW,16.1,-,N/A,,Clear,340,2012-12-31 10:52:00
5:52 AM,14.0,9.0,80,30.21,10.0,NNW,10.4,-,N/A,,Clear,330,2012-12-31 11:52:00
6:52 AM,12.0,8.1,84,30.20,10.0,NNW,8.1,-,N/A,,Clear,330,2012-12-31 12:52:00
8:52 AM,12.0,6.1,77,30.23,10.0,NNW,9.2,-,N/A,,Clear,340,2012-12-31 14:52:00
9:52 AM,12.0,5.0,73,30.26,10.0,NNW,11.5,-,N/A,,Clear,340,2012-12-31 15:52:00
10:52 AM,12.0,3.9,70,30.26,10.0,North,11.5,-,N/A,,Clear,350,2012-12-31 16:52:00
11:34 AM,12.2,5.0,73,30.18,10.0,NNW,17.3,-,N/A,,Mostly Cloudy,340,2012-12-31 17:34:00
11:52 AM,12.0,5.0,73,30.25,10.0,North,15.0,-,N/A,,Overcast,350,2012-12-31 17:52:00
12:12 PM,12.2,5.0,73,30.17,10.0,North,19.6,-,N/A,,Scattered Clouds,350,2012-12-31 18:12:00
12:52 PM,12.0,3.9,70,30.24,10.0,NNW,18.4,25.3,N/A,,Partly Cloudy,340,2012-12-31 18:52:00
1:52 PM,12.0,3.0,67,30.25,10.0,NNW,15.0,-,N/A,,Clear,330,2012-12-31 19:52:00
2:52 PM,10.9,1.9,67,30.24,10.0,NNW,13.8,-,N/A,,Clear,340,2012-12-31 20:52:00
3:52 PM,9.0,1.0,70,30.25,10.0,NNW,12.7,-,N/A,,Clear,330,2012-12-31 21:52:00
4:52 PM,7.0,-0.0,73,30.26,10.0,NNW,11.5,-,N/A,,Clear,330,2012-12-31 22:52:00
5:52 PM,3.9,-2.9,73,30.27,10.0,NNW,8.1,-,N/A,,Clear,330,2012-12-31 23:52:00
6:52 PM,1.9,-5.1,72,30.27,10.0,NNW,9.2,-,N/A,,Clear,330,2013-01-01 00:52:00
7:52 PM,1.0,-6.0,72,30.28,10.0,NNW,10.4,-,N/A,,Clear,330,2013-01-01 01:52:00
8:52 PM,-0.9,-7.1,75,30.30,10.0,NNW,3.5,-,N/A,,Clear,330,2013-01-01 02:52:00
9:52 PM,-2.0,-8.0,76,30.31,10.0,NW,4.6,-,N/A,,Clear,320,2013-01-01 03:52:00
10:52 PM,-4.0,-9.0,79,30.33,10.0,NNW,5.8,-,N/A,,Clear,330,2013-01-01 04:52:00
11:52 PM,-6.0,-9.9,83,30.34,10.0,WNW,4.6,-,N/A,,Clear,300,2013-01-01 05:52:00